STARLINK-31860, 59670

Orbit data source: Space-Track

STARLINK-31860, 59670 is a payload satellite owned by SpaceX/Seattle (US) in LEO that was launched on Mon, 06 May 2024 UTC via an FALCON 9 launch vehicle from the Air Force Eastern Test Range (AFETR). Payload-class satellites include a variety of spacecraft equipped with specific instruments for various scientific and technological missions. These include communications satellites like Starlink; space stations such as the ISS; scientific satellites like the Hubble; Earth observation satellites from companies like Planet Labs, Umbra, and HawkEye 360; GPS; miniature CubeSats for education and research; and military/defense satellites.

Loading next visibility...
Identifier
59670, 2024-084S
Orbit
LEO
Country
Flag of USUS
Related business
Manufacturer
SpaceX/Seattle
Mission
Operational Commercial Communications
Bus & Motor
STARLINK V2M, Unknown motor
Mass
730 kg wet, ~700 kg dry
Launch date (UTC)
2024-05-06 (2 years ago)
Launch vehicle
FALCON 9
Launch site
Air Force Eastern Test Range (AFETR)
Object type
Payload
Rocket body
Debris
Shape & HBR
Box + 2 Pan, 17.7 m
Radar Cross Section
33.884 m², Large (>1 m²)

Expand to show TLE details & history
Last TLE update: 1 day ago

TLE from 1 day ago
0 STARLINK-31860
1 59670U 24084S   25347.70892932  .00000486  00000-0  27176-4 0  9991
2 59670  43.0004 163.8941 0001224 273.7073  86.3639 15.27577610 91242
Epoch: 2025-12-13T17:00Z
TLE epoch observation values (Epoch: 2025-12-13T17:00:51.493Z)
Latitude
0.00002°
Longitude
-173.95275°
Altitude
482.779 km
Speed
7.626 km/s
True Right ascension
10h 55m 34s
True Declination
0° 00' 00"
Sunlit
Object was in daylight at epoch
Visualization orbit readout
Latitude
Unknown
Longitude
Unknown
Altitude
Unknown
Speed
Unknown
Apparent Right ascension
Unknown
Apparent Declination
Unknown
Sunlit
N/A
Visualization observer readout
Local Sidereal Time
19:38:15
Azimuth
Unknown
Elevation
Unknown
Doppler factor
Unknown
Orbital elements
Apogee altitude
485.841 km
Perigee altitude
484.161 km
Semi-major axis
6,863.138 km
Eccentricity
0.00012
Inclination
43.0004°
RAAN
163.8941°
Arg. of periapsis
273.7073°
True anomaly
86.3779°
Mean anomaly
86.3639°
Eccentric anomaly
86.3709°
Mean motion
3.81732 °/min
Orbital period
94.31 mins
BSTAR
0.000027176
Loading maneuver chart data...
Computing Atmospheric mass density...
Loading historical data...
Loading historical data...
Loading historical data...
Loading historical data...
Loading historical data...
Loading historical data...
Loading historical data...

Documentation

Showing up to 5 results
|